DMSP 5D-2 F13 DEB, 40468

Orbit data source: Space-Track

DMSP 5D-2 F13 DEB, 40468 is space debris in SSO originally from a launch on Fri, 24 Mar 1995 UTC launched from the Air Force Western Test Range (AFWTR). Debris objects in space refer to the collection of defunct objects orbiting the Earth. Examples of debris include non-operational satellites, rocket bodies, and fragments generated from explosions, collisions, or faulty payload assembly.

Loading next visibility...
Identifier
40468, 1995-015BL
Orbit
SSO
Country
Flag of USUS
Related business
Manufacturer
Unknown
Mission
Spacecraft
Bus & Motor
Unknown
Mass
Unknown
Launch date (UTC)
1995-03-24 (31 years ago)
Launch vehicle
Unknown
Launch site
Air Force Western Test Range (AFWTR)
Object type
Payload
Rocket body
Debris
Shape & HBR
Unknown shape, 0.1 m
Radar Cross Section
Small (<0.1 m²)

Expand to show TLE details & history
Last TLE update: 2 days ago

TLE from 2 days ago
0 DMSP 5D-2 F13 DEB
1 40468U 95015BL  25296.55868992  .00006785  00000-0  21499-2 0  9991
2 40468  98.6443 331.9688 0008916 215.9944 144.0644 14.40363348552207
Epoch: 2025-10-23T13:24Z
TLE epoch observation values (Epoch: 2025-10-23T13:24:30.809Z)
Latitude
-0.00004°
Longitude
98.62422°
Altitude
765.397 km
Speed
7.469 km/s
True Right ascension
22h 07m 52s
True Declination
0° 00' 00"
Sunlit
Object was in full shadow at epoch
Visualization orbit readout
Latitude
Unknown
Longitude
Unknown
Altitude
Unknown
Speed
Unknown
Apparent Right ascension
Unknown
Apparent Declination
Unknown
Sunlit
N/A
Visualization observer readout
Local Sidereal Time
14:57:31
Azimuth
Unknown
Elevation
Unknown
Doppler factor
Unknown
Orbital elements
Apogee altitude
760.786 km
Perigee altitude
748.067 km
Semi-major axis
7,132.563 km
Eccentricity
0.00089
Inclination
98.6443°
RAAN
331.9688°
Arg. of periapsis
215.9944°
True anomaly
144.12431°
Mean anomaly
144.0644°
Eccentric anomaly
144.09436°
Mean motion
3.60309 °/min
Orbital period
99.91 mins
BSTAR
0.0021499
Loading maneuver chart data...
Computing Atmospheric mass density...

Documentation

Showing up to 5 results
|